This demonstration page uses our WeatherBlox Daily Observations layout. Learn more.

Left ArrowRight Arrow

Hourly Observations for May 14, 2017

Temp ( °F °C ) Dew Point ( °F °C ) Humidity (%) Winds ( mph kmh ) Pressure ( in mb ) Visibility ( mi km ) Precip ( " mm )
12:53 am 00:53 Clear 61 16.1 55 12.8 81 81 Calm 29.86 1011 10 16 0.00 0.00
1:53 am 01:53 Clear 59 15 55 12.8 87 87 Calm 29.87 1012 10 16 0.00 0.00
2:53 am 02:53 Clear 57 13.9 55 12.8 93 93 Calm 29.87 1012 10 16 0.00 0.00
3:53 am 03:53 Clear 57 13.9 56 13.3 96 96 Calm 29.88 1012 10 16 0.00 0.00
4:53 am 04:53 Clear 56 13.3 54 12.2 93 93 Calm 29.89 1012 10 16 0.00 0.00
5:53 am 05:53 Clear 55 12.8 54 12.2 96 96 Calm 29.91 1013 10 16 0.00 0.00
6:53 am 06:53 Sunny 54 12.2 54 12.2 100 100 Calm 29.93 1014 10 16 0.00 0.00
7:53 am 07:53 Sunny 58 14.4 56 13.3 93 93 Calm 29.96 1015 10 16 0.00 0.00
8:53 am 08:53 Sunny 64 17.8 59 15 84 84 N 3 6 29.98 1015 10 16 0.00 0.00
9:53 am 09:53 Sunny 70 21.1 57 13.9 64 64 NE 8 13 30.01 1016 10 16 0.00 0.00
10:53 am 10:53 Sunny 73 22.8 54 12.2 51 51 VRB 3 6 30.01 1016 10 16 0.00 0.00
11:53 am 11:53 Sunny 75 23.9 54 12.2 48 48 ENE 6 9 30.01 1016 10 16 0.00 0.00
12:53 pm 12:53 Sunny 76 24.4 54 12.2 47 47 Calm 30.00 1016 10 16 0.00 0.00
1:53 pm 13:53 Sunny 79 26.1 56 13.3 45 45 W 7 11 29.99 1016 10 16 0.00 0.00
2:53 pm 14:53 Sunny 80 26.7 55 12.8 42 42 Calm 29.98 1015 10 16 0.00 0.00
3:53 pm 15:53 Sunny 82 27.8 54 12.2 38 38 VRB 5 7 29.96 1014 10 16 0.00 0.00
4:53 pm 16:53 Sunny 83 28.3 54 12.2 37 37 N 5 7 29.94 1014 10 16 0.00 0.00
5:53 pm 17:53 Sunny 84 28.9 54 12.2 36 36 NNE 6 9 29.93 1013 10 16 0.00 0.00
6:53 pm 18:53 Sunny 82 27.8 52 11.1 35 35 W 3 6 29.92 1013 10 16 0.00 0.00
7:53 pm 19:53 Sunny 81 27.2 53 11.7 38 38 VRB 3 6 29.92 1013 10 16 0.00 0.00
8:53 pm 20:53 Clear 71 21.7 59 15 66 66 Calm 29.93 1013 10 16 0.00 0.00
9:53 pm 21:53 Clear 68 20 60 15.6 76 76 Calm 29.94 1014 10 16 0.00 0.00
10:53 pm 22:53 Clear 65 18.3 61 16.1 87 87 Calm 29.96 1015 10 16 0.00 0.00
11:53 pm 23:53 Clear 63 17.2 60 15.6 90 90 Calm 29.96 1015 10 16 0.00 0.00

Powered by AerisWeather